Location: Claremont
(33.9858°S, 18.4575°E)
Time: 11:18:38
(UTC+00:00)

Cosmos 2237 Rocket - Pass Details

Date: 03 March 2021
Orbit: 835 x 850 km, 71.0° (Epoch: 10 April)

Event Time Altitude Azimuth Distance (km) Brightness Sun altitude
Rises 18:17:29 0° 209° (SSW) 3,419 6.1 -12.5°
Reaches altitude 10° 18:20:02 10° 215° (SW) 2,480 5.4 -13.0°
Maximum altitude 18:25:24 44° 285° (WNW) 1,159 3.4 -14.1°
Drops below altitude 10° 18:30:43 10° 356° (N) 2,461 4.5 -15.1°
Sets 18:33:15 0° 2° (N) 3,390 5.1 -15.6°
